Weather History for Harlingen, TX

Change the Weather History Date:

Monday, July 1, 2013

  Actual Average Record
Temperature  
Mean Temperature 86 °F 85 °F  
Max Temperature 100 °F 94 °F 101 °F (1937)
Min Temperature 71 °F 75 °F 64 °F (1924)
Degree Days  
Heating Degree Days 0 0  
Month to date heating degree days 0 0  
Since 1 June heating degree days 0 0  
Since 1 July heating degree days 0 0  
Cooling Degree Days 21 20  
Month to date cooling degree days 21 20  
Year to date cooling degree days 1751 1689  
Since 1 June cooling degree days 656 588  
Growing Degree Days 36 (Base 50)    
Moisture  
Dew Point 69 °F    
Average Humidity 60    
Maximum Humidity 87    
Minimum Humidity 33    
Precipitation  
Precipitation 0.65 in 0.06 in 2.21 in (1975)
Month to date precipitation 0.65 0.06  
Year to date precipitation 8.62 10.48  
Sea Level Pressure  
Sea Level Pressure 29.88 in    
Wind  
Wind Speed 4 mph (ENE)    
Max Wind Speed 31 mph    
Max Gust Speed 44 mph    
Visibility 9 miles    
Events Rain    
T = Trace of Precipitation, MM = Missing Value Source: NWS Daily Summary

Daily Weather History Graph

Daily Weather History Graph

Search for Another Location

Airport:

Trip Planner

Search our weather history database for the weather conditions in past years. The results will help you decide how hot, cold, wet, or windy it might be!

Date:

Astronomy

Jul. 01, 2013 Rise Set
Actual Time 6:41 AM CDT 8:27 PM CDT
Civil Twilight 6:15 AM CDT 8:53 PM CDT
Nautical Twilight 5:44 AM CDT 9:24 PM CDT
Astronomical Twilight 5:11 AM CDT 9:57 PM CDT
Moon 1:51 AM CDT (7/1) 3:01 PM CDT (7/1)
Length of Visible Light 14h 37m
Length of Day
13h 45m
Waning Crescent, 35% of the Moon is Illuminated
Jul 1
Waning Crescent
Jul 8
New
Jul 15
First Quarter
Jul 22
Full
Jul 29
Last Quarter

Hourly Weather History & Observations

Time (CDT) Temp. Heat Index Dew Point Humidity Pressure Visibility Wind Dir Wind Speed Gust Speed Precip Events Conditions
12:52 AM 78.1 °F - 71.1 °F 79% 29.87 in 10.0 mi SSW 5.8 mph - N/A   Clear
1:52 AM 78.1 °F - 71.1 °F 79% 29.86 in 10.0 mi SSW 4.6 mph - N/A   Clear
2:52 AM 77.0 °F - 71.1 °F 82% 29.86 in 10.0 mi Calm Calm - N/A   Clear
3:52 AM 75.0 °F - 70.0 °F 84% 29.85 in 10.0 mi Calm Calm - N/A   Clear
4:52 AM 75.0 °F - 70.0 °F 84% 29.85 in 10.0 mi Calm Calm - N/A   Clear
5:52 AM 73.0 °F - 69.1 °F 87% 29.85 in 10.0 mi Calm Calm - N/A   Clear
6:52 AM 73.0 °F - 70.0 °F 90% 29.86 in 10.0 mi Calm Calm - N/A   Clear
7:52 AM 78.1 °F - 73.0 °F 84% 29.88 in 10.0 mi East 3.5 mph - N/A   Clear
8:52 AM 84.9 °F 90.7 °F 72.0 °F 65% 29.91 in 10.0 mi Calm Calm - N/A   Clear
9:52 AM 89.1 °F 91.0 °F 64.9 °F 45% 29.92 in 10.0 mi West 4.6 mph - N/A   Clear
10:52 AM 93.0 °F 94.6 °F 64.0 °F 38% 29.91 in 10.0 mi North 4.6 mph - N/A   Clear
11:52 AM 93.0 °F 94.6 °F 64.0 °F 38% 29.91 in 10.0 mi North 6.9 mph - N/A   Clear
12:52 PM 93.0 °F 95.0 °F 64.9 °F 39% 29.91 in 10.0 mi NNE 8.1 mph - N/A   Clear
1:52 PM 93.0 °F 95.0 °F 64.9 °F 39% 29.90 in 10.0 mi North 8.1 mph - N/A   Clear
2:52 PM 98.1 °F 100.7 °F 64.0 °F 33% 29.87 in 10.0 mi NE 5.8 mph - N/A   Clear
3:52 PM 97.0 °F 98.3 °F 63.0 °F 32% 29.86 in 10.0 mi Variable 3.5 mph - N/A   Partly Cloudy
4:52 PM 96.1 °F 101.0 °F 68.0 °F 40% 29.84 in 10.0 mi East 11.5 mph 17.3 mph N/A   Mostly Cloudy
5:01 PM 87.8 °F 93.8 °F 71.6 °F 58% 29.84 in 9.0 mi NNE 27.6 mph 34.5 mph 0.00 in Rain Light Rain
5:12 PM 80.6 °F 85.4 °F 73.4 °F 79% 29.86 in 2.5 mi NE 24.2 mph 35.7 mph 0.04 in Rain Heavy Rain
5:21 PM 77.0 °F - 69.8 °F 78% 29.88 in 1.0 mi North 25.3 mph 43.7 mph 0.25 in Rain Heavy Rain
5:34 PM 77.0 °F - 71.6 °F 83% 29.89 in 1.0 mi SW 8.1 mph - 0.52 in Rain Heavy Rain
5:47 PM 78.8 °F - 66.2 °F 65% 29.87 in 4.0 mi SW 10.4 mph - 0.64 in Rain Light Rain
5:52 PM 79.0 °F - 66.9 °F 66% 29.86 in 10.0 mi SW 11.5 mph - 0.64 in Rain Light Rain
6:52 PM 82.9 °F 87.5 °F 71.1 °F 67% 29.87 in 10.0 mi Calm Calm - 0.00 in   Clear
7:52 PM 82.9 °F 88.8 °F 73.0 °F 72% 29.88 in 10.0 mi ENE 10.4 mph - N/A   Overcast
8:52 PM 80.1 °F 84.5 °F 73.9 °F 81% 29.89 in 10.0 mi East 6.9 mph - N/A   Clear
9:52 PM 78.1 °F - 73.0 °F 84% 29.91 in 10.0 mi SSE 8.1 mph - 0.01 in   Clear
10:52 PM 77.0 °F - 72.0 °F 84% 29.91 in 10.0 mi SE 4.6 mph - N/A   Clear
11:52 PM 75.9 °F - 72.0 °F 87% 29.94 in 10.0 mi Calm Calm - N/A   Clear